This demonstration page uses our WeatherBlox Daily Observations layout. Learn more.

Left ArrowRight Arrow

38.89511, -77.03637

Hourly Observations for June 12, 2022

Temp ( °F °C ) Dew Point ( °F °C ) Humidity (%) Winds ( mph kmh ) Pressure ( in mb ) Visibility ( mi km ) Precip ( " mm )
12:52 am 00:52 Cloudy 68 20 61 16.1 78 78 NE 6 9 29.95 1014 10 16 0.00 0.00
1:52 am 01:52 Cloudy 68 20 61 16.1 78 78 NE 7 11 29.94 1014 8 13 0.00 0.00
2:52 am 02:52 Cloudy 67 19.4 62 16.7 84 84 NE 5 7 29.93 1014 10 16 0.00 0.00
3:52 am 03:52 Cloudy 67 19.4 62 16.7 84 84 NE 3 6 29.92 1013 10 16 0.00 0.00
4:52 am 04:52 Cloudy 67 19.4 62 16.7 84 84 SSE 3 6 29.92 1013 10 16 0.00 0.00
5:52 am 05:52 Cloudy 67 19.4 62 16.7 84 84 SSW 3 6 29.93 1014 10 16 0.00 0.00
6:52 am 06:52 Cloudy 68 20 63 17.2 84 84 S 8 13 29.94 1014 10 16 0.00 0.00
7:52 am 07:52 Cloudy 69 20.6 63 17.2 81 81 NW 3 6 29.94 1014 10 16 0.00 0.00
8:42 am 08:42 Cloudy 70 21.1 64 17.8 82 82 S 7 11 29.94 1014 10 16 0.00 0.00
8:52 am 08:52 Cloudy 70 21.1 64 17.8 82 82 SSW 10 17 29.94 1014 10 16 0.00 0.00
9:18 am 09:18 Mostly Cloudy 70 21.1 64 17.8 82 82 SW 3 6 29.96 1015 10 16 0.00 0.00
9:31 am 09:31 Cloudy 70 21.1 64 17.8 82 82 SSW 7 11 29.94 1014 10 16 0.00 0.00
9:52 am 09:52 Cloudy 70 21.1 64 17.8 82 82 SW 7 11 29.95 1014 10 16 0.00 0.00
9:54 am 09:54 Cloudy 70 21.1 64 17.8 82 82 SW 6 9 29.95 1014 10 16 0.00 0.00
10:19 am 10:19 Cloudy with Light Rain 70 21.1 64 17.8 82 82 SSW 12 19 29.96 1015 6 10 0.00 0.00
10:52 am 10:52 Cloudy 70 21.1 65 18.3 84 84 SSW 8 13 29.96 1014 10 16 0.01 0.25
10:54 am 10:54 Cloudy 71 21.7 65 18.3 81 81 SSW 8 13 29.96 1015 10 16 0.00 0.00
11:48 am 11:48 Cloudy 72 22 66 19 83 83 S 3 6 29.96 1015 10 16 0.00 0.00
11:52 am 11:52 Cloudy 72 22.2 66 18.9 82 82 Calm 29.96 1014 10 16 0.00 0.00
12:52 pm 12:52 Mostly Cloudy 74 23.3 67 19.4 79 79 SSE 8 13 29.93 1014 10 16 0.00 0.00
1:52 pm 13:52 Mostly Cloudy 77 25 67 19.4 71 71 S 10 17 29.93 1014 10 16 0.00 0.00
2:52 pm 14:52 Mostly Cloudy 78 25.6 65 18.3 64 64 S 9 15 29.90 1013 10 16 0.00 0.00
3:52 pm 15:52 Mostly Cloudy 80 26.7 67 19.4 64 64 S 12 19 29.91 1013 10 16 0.00 0.00
4:52 pm 16:52 Partly Cloudy 80 26.7 68 20 67 67 S 13 20 29.90 1012 10 16 0.00 0.00
5:52 pm 17:52 Partly Cloudy 80 26.7 69 20.6 69 69 SSE 13 20 29.89 1012 10 16 0.00 0.00
6:52 pm 18:52 Mostly Sunny 79 26.1 68 20 69 69 S 9 15 29.89 1012 10 16 0.00 0.00
7:52 pm 19:52 Mostly Sunny 78 25.6 68 20 71 71 S 8 13 29.90 1012 10 16 0.00 0.00
8:52 pm 20:52 Mostly Clear 76 24.4 67 19.4 74 74 SSW 8 13 29.90 1012 10 16 0.00 0.00
9:52 pm 21:52 Mostly Clear 75 23.9 68 20 79 79 SSW 7 11 29.92 1013 10 16 0.00 0.00
10:52 pm 22:52 Mostly Cloudy 75 23.9 69 20.6 82 82 S 8 13 29.93 1014 10 16 0.00 0.00
11:52 pm 23:52 Cloudy 75 23.9 69 20.6 82 82 S 7 11 29.93 1013 10 16 0.00 0.00

Powered by AerisWeather